Regional Weather Roundup
Issued by NWS

Home | Current Version | Previous Version | Text Only | Print | Product List | Glossary Off
Versions: 1 2 3 4 5 6 7 8 9 10 11 12 13 14 15 16 17 18 19 20 21 22 23 24 25 26 27 28 29 30 31 32 33 34 35 36 37 38 39 40 41 42 43 44 45 46 47 48 49 50

000
ASUS45 KTFX 241804
RWRMT
MONTANA HOURLY WEATHER ROUNDUP
NATIONAL WEATHER SERVICE GREAT FALLS MT
1204 PM MDT THU APR 24 2014

NOTE: "FAIR" INDICATES FEW OR NO CLOUDS BELOW 12000 FEET WITH NO
SIGNIFICANT WEATHER AND/OR OBSTRUCTIONS TO VISIBILITY.

* THESE STATIONS ARE NOT UNDER NWS QUALITY CONTROL. THEY DO NOT
   REPORT WEATHER SUCH AS PRECIPITATION OR FOG.

MTZ001>007-043-241900-
WEST OF THE DIVIDE
CITY           SKY/WX    TMP DP  RH WIND       PRES   REMARKS
KALISPELL      LGT RAIN  43  39  86 SE12      29.79S
MISSOULA       LGT RAIN  45  39  80 SE9       29.84R
BUTTE          CLOUDY    43  28  56 S9        29.84S
MULLAN PASS    LGT SNOW  30  30 100 VRB7      29.77R VSB M1/4 WCI  23
* ESSEX        N/A       40  34  79 N2         N/A
* LINCOLN      N/A       39  35  86 S4         N/A
* LOOKOUT PASS N/A       36  36 100 N1         N/A
* POLSON       N/A       43  40  89 S2         N/A
* SEELEY LAKE  N/A       39  36  89 N2         N/A
* THOMP F APT  CLOUDY    34  25  70 E5G13      N/A   WCI  29
$$

MTZ008-052>055-241900-
SOUTHWEST MONTANA
CITY           SKY/WX    TMP DP  RH WIND       PRES   REMARKS
BOZEMAN        CLOUDY    48  27  44 SW18      29.84S
DILLON         CLOUDY    46  30  54 SW24G31   29.86R
W YELLOWSTONE  N/A       34  31  89 SW3G13     N/A
* THREE FORKS  CLOUDY    52  30  43 S28G36     N/A
* BOULDER HILL N/A       43  23  45 SW17G22    N/A
* MONIDA PASS  N/A       32  25  75 SE20G27    N/A   WCI  20
* RAYNOLDS PAS N/A       30   7  38 S20        N/A   WCI  17
* WHITEHALL    N/A       51  24  35 SW15G22    N/A
* WISE RIVER   N/A       35  33  92 NW4G17     N/A
$$

MTZ009>010-012-014-046-048-049-054-241900-
EAST SLOPES AND CENTRAL MONTANA
CITY           SKY/WX    TMP DP  RH WIND       PRES   REMARKS
CUT BANK       CLOUDY    48  27  44 S10       29.72F
GREAT FALLS    CLOUDY    48  30  50 SW13      29.75F
HELENA         CLOUDY    50  37  61 N7        29.79F
MALMSTROM AFB  CLOUDY    52  30  43 S13       29.73S
* CONRAD       CLOUDY    48  34  59 S8         N/A
* DEARBORN     N/A       48  31  52 SW10       N/A
* EAST GLACIER N/A       42  29  60 W19        N/A
* MONARCH      N/A       40  21  47 SW17G25    N/A   WCI  31
* PENDROY      N/A       44  29  56 S8         N/A
* ROGERS PASS  N/A       37  31  79 SE5G11     N/A   WCI  33
* SAINT MARY   N/A       42  27  55 S7G14      N/A
* SWEET GRASS  N/A       49  26  41 S12G18     N/A
$$

MTZ011-013-016-021-035-040-045-047-050-051-241900-
NORTH CENTRAL MONTANA
CITY           SKY/WX    TMP DP  RH WIND       PRES   REMARKS
HAVRE          PTCLDY    54  23  30 W9G22     29.74F
LEWISTOWN      CLOUDY    48  28  46 W14       29.78S
* CHESTER      N/A       49  25  39 SW9G15     N/A
* DENTON       N/A       54  26  34 W13G20     N/A
* GEYSER       N/A       52  25  35 SW24G32    N/A
* JUDITH GAP   N/A       50  23  35 SW19G27    N/A
* LOMA         N/A       55  28  35 S8G14      N/A
$$

MTZ017>020-022>027-061-062-241900-
NORTHEAST MONTANA
CITY           SKY/WX    TMP DP  RH WIND       PRES   REMARKS
GLASGOW        PTCLDY    55  30  39 W10       29.77S
GLENDIVE       SUNNY     55  25  31 W20G31    29.79R
JORDAN         SUNNY     55  18  23 W22G28    29.78F
SIDNEY         PTSUNNY   54  30  40 NW16G22   29.78F
WOLF POINT     SUNNY     57  28  33 NW15      29.76F
* BEAVER HILL  N/A       54  21  27 W26G32     N/A
* CIRCLE       N/A       52  30  43 W18        N/A
* LINDSAY DVD  N/A       51  23  33 W26G31     N/A
* NAVAJO       N/A       51  28  41 NW14G23    N/A
* SACO         N/A       53  29  40 S11        N/A
$$

MTZ028>042-056>058-241900-
SOUTHCENTRAL AND SOUTHEAST MONTANA
CITY           SKY/WX    TMP DP  RH WIND       PRES   REMARKS
BAKER          SUNNY     55  19  24 W17G35    29.80F
BILLINGS       PTSUNNY   57  21  25 SW7       29.81F
LIVINGSTON     CLOUDY    52  25  35 SW31G36   29.81F
MILES CITY     SUNNY     57  21  25 W17G26    29.81F
* LAUREL APT   PTCLDY    57  23  27 SE9        N/A
* ROUNDUP APT  PTSUNNY   55  23  29 SW13G18    N/A
* HYSHAM       N/A       54  28  37 NW4G10     N/A
* REED POINT   N/A       57  27  32 NW10       N/A
* ROSCOE HILL  N/A       49  15  26 S14G25     N/A
$$

REGIONAL REPORTS...DAKOTAS
CITY           SKY/WX    TMP DP  RH WIND       PRES   REMARKS
WILLISTON      PTCLDY    55  36  49 W10G24    29.74S
DICKINSON      SUNNY     55  19  24 NW21G36   29.73F
CROSBY         PTCLDY    52  39  61 W18       29.72R
TIOGA          PTCLDY    52  36  55 W18G25    29.74S
WATFORD CITY   PTCLDY    54  34  47 NW13G23   29.73R
BISMARCK       PTCLDY    59  21  23 W14G26    29.72F
GRAND FORKS    CLOUDY    43  39  86 SE10      29.72S
FARGO          FOG       43  41  93 S7        29.71F
BUFFALO SD     SUNNY     55  23  29 NW23G36   29.76S
RAPID CITY     SUNNY     57  28  33 N13       29.85S
$$

REGIONAL REPORTS...WYOMING/IDAHO/WASHINGTON
CITY           SKY/WX    TMP DP  RH WIND       PRES   REMARKS
GILLETTE       SUNNY     55  25  31 VRB6      29.85F
SHERIDAN       SUNNY     55  25  31 E9        29.83F
CODY           PTCLDY    55  25  31 W14       29.84F
SALMON         CLOUDY    48  34  59 SE14G22   29.87F
MULLAN PASS    LGT SNOW  30  30 100 VRB7      29.77S VSB M1/4 WCI  23
SAND POINT     N/A       39  39 100 CALM      29.80S
SPOKANE        CLOUDY    48  43  83 SW23G30   29.76R

$$




USA.gov is the U.S. government's official web portal to all federal, state and local government web resources and services.